COSMOS 1275 DEB, 13022

Orbit data source: Space-Track

COSMOS 1275 DEB, 13022 is space debris in LEO originally from a launch on Thu, 04 Jun 1981 UTC launched from the Plesetsk Missile And Space Complex (PKMTR). Debris objects in space refer to the collection of defunct objects orbiting the Earth. Examples of debris include non-operational satellites, rocket bodies, and fragments generated from explosions, collisions, or faulty payload assembly.

Loading next visibility...
Identifier
13022, 1981-053EU
Orbit
LEO
Country
Flag of CISCIS
Related business
Manufacturer
Unknown
Mission
Spacecraft
Bus & Motor
Unknown
Mass
Unknown
Launch date (UTC)
1981-06-04 (45 years ago)
Launch vehicle
Unknown
Launch site
Plesetsk Missile And Space Complex (PKMTR)
Object type
Payload
Rocket body
Debris
Shape & HBR
Unknown shape, 0.1 m
Radar Cross Section
Small (<0.1 m²)

Expand to show TLE details & history
Last TLE update: 13 hours ago

TLE from 13 hours ago
0 COSMOS 1275 DEB
1 13022U 81053EU  26035.97927068  .00001977  00000-0  91186-3 0  9991
2 13022  82.9166   7.9609 0045468  42.6375  22.3945 14.20055624266689
Epoch: 2026-02-04T23:30Z
TLE epoch observation values (Epoch: 2026-02-04T23:30:08.986Z)
Latitude
64.38917°
Longitude
-104.77193°
Altitude
806.009 km
Speed
7.472 km/s
True Right ascension
01h 31m 36s
True Declination
64° 15' 21"
Sunlit
Object was in daylight at epoch
Visualization orbit readout
Latitude
Unknown
Longitude
Unknown
Altitude
Unknown
Speed
Unknown
Apparent Right ascension
Unknown
Apparent Declination
Unknown
Sunlit
N/A
Visualization observer readout
Local Sidereal Time
14:52:35
Azimuth
Unknown
Elevation
Unknown
Doppler factor
Unknown
Orbital elements
Apogee altitude
854.991 km
Perigee altitude
789.514 km
Semi-major axis
7,200.389 km
Eccentricity
0.00455
Inclination
82.9166°
RAAN
7.9609°
Arg. of periapsis
42.6375°
True anomaly
22.59405°
Mean anomaly
22.3945°
Eccentric anomaly
22.49417°
Mean motion
3.5523 °/min
Orbital period
101.34 mins
BSTAR
0.00091186
Loading maneuver chart data...
Computing Atmospheric mass density...

Documentation

Showing up to 5 results
|